Tracking 23885 objects as of 27-Nov-2021
HD Live streaming from Space Station
objects crossing your sky now

SL-8 DEB

Track SL-8 DEB now!
10-day predictions


NORAD ID: 6065
Int'l Code: 1972-043D
Perigee: 650.0 km
Apogee: 667.0 km
Inclination: 74.1 °
Period: 97.8 minutes
Semi major axis: 7029 km
RCS: 0.0066 m2 (small)
Launch date: June 23, 1972
Source: Commonwealth of Independent States (former USSR) (CIS)
Launch site: PLESETSK MISSILE AND SPACE COMPLEX (PKMTR)

Note: This is SATELLITE DEBRIS
aabbcc
Your satellite tracking list
Your tracking list is empty




NASA's NSSDC Master Catalog

Two Line Element Set (TLE):
1 06065U 72043D   21330.46413911  .00000781  00000-0  12650-3 0  9994
2 06065  74.0684 241.4672 0012050   8.7892 351.3489 14.73051093611033
Source of the keplerian elements: AFSPC